Weather History for Chernovsty, Ukraine

Change the Weather History Date:

Friday, February 1, 2013

  Actual Average Record
Temperature  
Mean Temperature 40 °F -  
Max Temperature 44 °F - - ()
Min Temperature 35 °F - - ()
Degree Days  
Heating Degree Days 26    
Moisture  
Dew Point 28 °F    
Average Humidity 64    
Maximum Humidity 81    
Minimum Humidity 43    
Precipitation  
Precipitation 0.00 in - - ()
Sea Level Pressure  
Sea Level Pressure 29.66 in    
Wind  
Wind Speed 4 mph ()    
Max Wind Speed 11 mph    
Max Gust Speed -    
Visibility 6.2 miles    
Events Rain    
T = Trace of Precipitation, MM = Missing Value Source: Averaged Metar Reports

Daily Weather History Graph

Daily Weather History Graph

Search for Another Location

Airport:

Trip Planner

Search our weather history database for the weather conditions in past years. The results will help you decide how hot, cold, wet, or windy it might be!

Date:

Astronomy

Feb. 01, 2013 Rise Set
Actual Time 7:44 AM EET 5:15 PM EET
Civil Twilight 7:11 AM EET 5:48 PM EET
Nautical Twilight 6:33 AM EET 6:26 PM EET
Astronomical Twilight 5:57 AM EET 7:02 PM EET
Moon 11:34 PM EET (2/1) 9:36 AM EET (2/1)
Length of Visible Light 10h 37m
Length of Day
9h 30m
Waning Gibbous, 73% of the Moon is Illuminated
Feb 1
Waning Gibbous
Feb 3
Last Quarter
Feb 10
New
Feb 17
First Quarter
Feb 25
Full

Hourly Weather History & Observations

Time (EET) Temp. Windchill Dew Point Humidity Pressure Visibility Wind Dir Wind Speed Gust Speed Precip Events Conditions
5:30 AM 35.6 °F - 26.6 °F 70% 29.62 in - Calm Calm - N/A   Clear
6:00 AM 37.4 °F - 26.6 °F 65% 29.62 in - Variable 2.2 mph - N/A   Clear
6:30 AM 39.2 °F 36.0 °F 26.6 °F 61% 29.62 in 6.2 mi Variable 4.5 mph - N/A   Overcast
7:00 AM 41.0 °F 38.1 °F 28.4 °F 61% 29.65 in 6.2 mi West 4.5 mph - N/A Rain Light Rain Showers
7:10 AM 41.0 °F 36.5 °F 28.4 °F 61% 29.65 in 6.2 mi West 6.7 mph - N/A Rain Light Rain Showers
7:30 AM 41.0 °F 35.4 °F 28.4 °F 61% 29.65 in 6.2 mi WNW 8.9 mph - N/A Rain Light Rain Showers
8:00 AM 41.0 °F 35.4 °F 28.4 °F 61% 29.65 in 6.2 mi West 8.9 mph - N/A   Overcast
8:30 AM 41.0 °F 36.5 °F 28.4 °F 61% 29.65 in 6.2 mi West 6.7 mph - N/A   Mostly Cloudy
9:00 AM 37.4 °F 30.9 °F 30.2 °F 75% 29.65 in 6.2 mi NW 8.9 mph - N/A Rain Light Rain Showers
9:30 AM 39.2 °F 34.4 °F 32.0 °F 75% 29.68 in 6.2 mi WNW 6.7 mph - N/A Rain Light Rain Showers
10:00 AM 39.2 °F 36.0 °F 33.8 °F 81% 29.68 in 6.2 mi Variable 4.5 mph - N/A Rain Light Rain Showers
10:30 AM 39.2 °F - 33.8 °F 81% 29.65 in 6.2 mi Calm Calm - N/A Rain Light Rain Showers
11:00 AM 42.8 °F 40.2 °F 33.8 °F 70% 29.65 in 6.2 mi Variable 4.5 mph - N/A   Mostly Cloudy
11:30 AM 41.0 °F - 32.0 °F 70% 29.65 in - SW 2.2 mph - N/A   Clear
12:00 PM 39.2 °F - 32.0 °F 75% 29.68 in - NNW 2.2 mph - N/A   Clear
12:30 PM 41.0 °F 36.5 °F 32.0 °F 70% 29.68 in - NW 6.7 mph - N/A   Clear
1:00 PM 41.0 °F 38.1 °F 32.0 °F 70% 29.68 in - WNW 4.5 mph - N/A   Clear
1:30 PM 44.6 °F 39.8 °F 28.4 °F 53% 29.65 in - West 8.9 mph - N/A   Clear
2:00 PM 44.6 °F 39.8 °F 26.6 °F 49% 29.65 in - WNW 8.9 mph - N/A   Clear
2:30 PM 44.6 °F 38.9 °F 23.0 °F 43% 29.65 in - West 11.2 mph - N/A   Clear
3:00 PM 44.6 °F 39.8 °F 24.8 °F 46% 29.65 in - West 8.9 mph - N/A   Clear
3:30 PM 44.6 °F 38.9 °F 23.0 °F 43% 29.68 in - West 11.2 mph - N/A   Clear
4:00 PM 44.6 °F 39.8 °F 23.0 °F 43% 29.68 in - West 8.9 mph - N/A   Clear
4:30 PM 44.6 °F 40.8 °F 23.0 °F 43% 29.68 in - West 6.7 mph - N/A   Clear
5:00 PM 41.0 °F 34.4 °F 24.8 °F 53% 29.68 in - West 11.2 mph - N/A   Clear
5:30 PM 39.2 °F 33.1 °F 26.6 °F 61% 29.68 in - NNW 8.9 mph - N/A   Clear
6:00 PM 39.2 °F 34.4 °F 28.4 °F 65% 29.68 in - North 6.7 mph - N/A   Clear
6:30 PM 37.4 °F - 28.4 °F 70% 29.68 in - North 2.2 mph - N/A   Clear
7:00 PM 37.4 °F 33.9 °F 28.4 °F 70% 29.68 in - NNW 4.5 mph - N/A   Clear
7:30 PM 35.6 °F - 28.4 °F 75% 29.68 in - Calm Calm - N/A   Clear
8:00 PM 35.6 °F - 30.2 °F 81% 29.68 in - Calm Calm - N/A   Clear
8:30 PM 35.6 °F - 30.2 °F 81% 29.68 in - Calm Calm - N/A   Clear
9:00 PM 35.6 °F - 28.4 °F 75% 29.68 in - Calm Calm - N/A   Clear